Total_Precipitation_Accumulation
0.13 0.37 0.71 1.11 1.96 2.17 1.50 0.88 0.64 0.54 0.54 0.49 0.45 0.45 0.63 0.98 1.45 2.13 1.71 1.27 1.30 1.46 1.66 2.01 2.18 1.96 1.84 1.74 1.85 1.90 1.79 1.66 1.52 1.50 1.47 1.41 1.33 1.15 0.97 0.90 0.90 0.94 0.92 0.80 0.86 0.89 0.85 0.93 1.05
0.30 0.57 0.84 1.39 2.01 1.62 1.16 0.76 0.62 0.45 0.44 0.48 0.59 0.65 0.61 0.76 0.74 0.99 1.40 1.42 1.12 1.24 1.51 1.57 1.89 1.81 1.71 1.65 1.76 1.72 1.63 1.46 1.41 1.34 1.31 1.26 1.26 1.09 0.87 0.81 0.84 0.87 0.84 0.83 0.91 0.92 0.90 0.92 1.00
0.46 0.65 1.00 1.55 1.44 0.93 0.73 0.53 0.42 0.40 0.45 0.56 0.68 0.73 0.76 0.87 0.81 1.08 1.37 1.21 1.11 1.15 1.39 1.65 1.76 1.61 1.55 1.50 1.55 1.52 1.50 1.43 1.37 1.27 1.26 1.18 1.13 1.03 0.87 0.81 0.82 0.85 0.86 0.83 0.88 0.99 0.99 0.97 1.00
0.55 0.80 0.97 1.15 0.91 0.46 0.30 0.29 0.30 0.43 0.61 0.82 0.87 0.92 0.91 0.86 0.87 1.10 1.25 1.03 1.01 0.95 1.06 1.38 1.53 1.43 1.45 1.38 1.32 1.40 1.45 1.46 1.38 1.25 1.19 1.18 1.15 1.11 0.94 0.81 0.80 0.87 0.92 0.91 0.93 1.06 1.07 0.97 0.98
0.52 0.86 1.14 0.92 0.59 0.35 0.23 0.22 0.33 0.49 0.69 0.85 0.93 1.13 1.33 1.17 0.97 1.11 1.08 0.97 0.91 0.90 0.96 1.16 1.43 1.34 1.31 1.27 1.26 1.34 1.41 1.44 1.32 1.20 1.08 1.13 1.15 1.05 0.91 0.85 0.83 0.82 0.88 0.97 1.01 1.06 1.06 1.04 1.08
0.68 0.99 0.94 0.68 0.42 0.26 0.24 0.27 0.34 0.47 0.67 0.85 1.17 1.39 1.62 1.53 1.33 1.25 1.09 1.16 1.06 0.89 0.90 1.10 1.40 1.35 1.28 1.28 1.31 1.43 1.46 1.34 1.24 1.14 1.04 1.03 1.05 1.01 0.95 0.93 0.92 0.84 0.89 1.03 1.05 1.04 0.99 1.03 1.15
0.70 0.77 0.60 0.47 0.36 0.25 0.23 0.26 0.35 0.52 0.70 0.95 1.28 1.50 1.60 1.66 1.57 1.43 1.30 1.37 1.45 1.22 1.16 1.16 1.21 1.24 1.29 1.45 1.54 1.61 1.55 1.31 1.21 1.15 1.06 0.98 0.96 0.95 0.92 0.99 1.00 0.92 0.95 1.04 1.11 1.08 1.06 1.11 1.22
0.43 0.51 0.39 0.27 0.32 0.28 0.22 0.25 0.37 0.60 0.81 1.02 1.24 1.44 1.70 1.57 1.49 1.61 1.86 2.04 2.12 1.93 1.78 1.53 1.38 1.47 1.36 1.44 1.63 1.73 1.48 1.25 1.17 1.17 1.10 1.08 1.13 1.12 1.16 1.11 1.08 1.14 1.23 1.27 1.33 1.27 1.22 1.31 1.39
0.28 0.42 0.31 0.17 0.19 0.23 0.21 0.25 0.34 0.44 0.67 0.94 1.14 1.26 1.27 1.28 1.51 1.87 2.32 2.44 2.32 2.38 2.18 1.94 1.77 1.61 1.59 1.58 1.60 1.84 1.62 1.38 1.43 1.58 1.50 1.56 1.89 1.80 1.84 1.47 1.39 1.55 1.72 1.77 1.80 1.78 1.68 1.60 1.54
0.24 0.30 0.18 0.09 0.06 0.09 0.16 0.24 0.33 0.49 0.96 1.55 1.54 1.23 1.07 1.29 1.63 1.92 2.24 2.53 2.24 2.39 2.15 2.04 2.04 1.77 1.68 1.76 2.10 2.50 2.09 1.92 1.96 2.17 2.05 2.37 2.46 2.35 1.73 1.73 1.97 2.12 2.46 2.58 2.60 2.63 2.33 2.00 1.85
0.18 0.16 0.11 0.05 0.04 0.04 0.07 0.17 0.26 0.55 1.07 1.77 1.94 1.51 1.34 1.44 1.84 1.86 2.11 2.37 2.40 2.35 2.27 2.02 2.27 2.04 2.05 2.34 2.43 2.56 2.54 2.41 2.40 2.46 2.43 2.69 2.43 2.11 2.01 2.32 2.67 2.89 3.04 3.21 3.25 3.16 2.66 2.60 2.78
0.11 0.09 0.05 0.03 0.03 0.03 0.12 0.21 0.32 0.47 0.95 1.27 1.22 1.13 1.29 1.51 1.87 2.08 2.13 2.40 2.49 2.35 2.32 2.31 2.45 2.51 2.64 2.61 2.48 2.34 2.09 2.10 2.29 2.43 2.38 2.57 2.63 2.63 2.61 2.77 2.87 3.11 3.48 3.86 3.79 3.77 3.47 3.39 3.15
0.08 0.10 0.10 0.07 0.06 0.07 0.14 0.18 0.31 0.52 0.69 0.76 0.72 0.93 1.36 1.64 2.04 2.38 2.73 2.97 3.05 2.95 2.84 2.91 3.09 3.04 2.97 2.88 2.56 2.15 1.99 1.89 1.96 2.05 2.15 2.12 2.44 2.74 2.77 2.61 2.66 2.61 2.83 3.28 3.85 3.77 3.92 3.83 3.44
0.07 0.07 0.10 0.12 0.08 0.13 0.16 0.18 0.37 0.66 0.67 0.72 0.87 1.13 1.51 1.95 2.32 2.57 3.34 3.75 3.99 3.92 3.76 3.60 3.70 3.31 3.05 2.89 2.56 2.32 2.05 2.08 1.98 1.87 1.81 1.99 2.25 2.52 2.49 2.46 2.67 2.70 2.63 2.79 3.26 3.41 3.78 3.73 3.36
0.12 0.14 0.14 0.15 0.09 0.11 0.17 0.39 0.57 0.69 0.87 0.91 1.08 1.29 1.60 2.19 2.66 3.12 3.66 4.41 4.85 5.03 4.67 4.10 3.83 3.54 3.29 3.05 2.66 2.35 2.19 2.00 2.12 2.09 1.91 1.93 2.03 2.22 2.22 2.31 2.31 2.37 2.28 2.37 2.59 2.80 3.07 3.04 2.90
0.17 0.27 0.33 0.19 0.12 0.13 0.21 0.65 0.80 0.67 1.00 1.34 1.28 1.54 1.92 2.44 2.92 3.59 4.28 5.11 5.66 5.82 5.27 4.56 3.84 3.88 3.76 3.47 2.82 2.41 2.22 2.12 2.06 1.97 1.78 1.65 1.73 1.74 1.85 1.87 1.83 1.85 1.71 1.83 2.19 2.27 2.53 2.75 2.81
0.18 0.25 0.32 0.29 0.17 0.16 0.26 0.68 0.86 0.69 0.90 1.20 1.41 1.64 2.07 2.43 2.76 3.39 4.03 4.85 5.46 5.96 5.78 5.18 5.02 4.80 4.13 3.43 2.81 2.41 2.19 2.13 1.93 1.83 1.72 1.62 1.53 1.53 1.68 1.80 1.85 1.56 1.55 1.65 1.55 1.97 2.22 2.46 2.53
0.17 0.17 0.25 0.34 0.24 0.24 0.33 0.54 0.82 0.87 1.09 1.36 1.47 1.59 1.86 2.07 2.38 2.87 3.36 3.81 4.41 4.91 4.82 4.78 4.93 4.51 3.90 3.27 2.81 2.54 2.28 1.97 1.77 1.74 1.75 1.62 1.57 1.58 1.78 1.64 1.60 1.46 1.72 1.93 2.01 2.31 2.25 2.19 2.25
0.13 0.13 0.21 0.28 0.24 0.31 0.45 0.59 0.81 0.98 1.25 1.49 1.45 1.39 1.47 1.71 1.97 2.25 2.62 2.98 3.19 3.38 3.50 3.80 4.01 3.75 3.31 2.92 2.46 2.28 2.22 1.98 1.74 1.60 1.50 1.58 1.51 1.70 1.91 1.70 1.98 1.77 1.77 1.88 1.92 2.08 2.06 1.90 1.87
0.11 0.12 0.21 0.27 0.22 0.27 0.43 0.73 0.90 0.99 1.04 1.17 1.27 1.18 1.24 1.51 1.55 1.63 1.82 2.15 2.30 2.53 2.85 3.20 3.42 3.26 2.73 2.52 2.34 2.22 2.16 1.99 1.94 1.80 1.73 1.52 1.48 1.59 1.54 1.89 1.77 1.81 1.95 1.98 2.06 2.18 2.18 1.96 1.90
0.10 0.12 0.15 0.20 0.21 0.31 0.46 1.01 1.08 0.96 0.89 0.81 0.96 1.01 1.00 1.17 1.29 1.34 1.33 1.49 1.82 2.38 2.59 2.49 2.71 2.88 2.61 2.50 2.43 2.34 2.27 2.07 2.12 2.05 1.89 1.51 1.34 1.38 1.45 1.53 1.60 1.85 1.69 2.01 2.25 2.19 2.27 2.24 2.05
0.09 0.09 0.10 0.13 0.18 0.45 0.57 1.06 1.14 0.98 0.97 0.78 0.76 0.80 0.75 0.72 0.89 1.04 1.04 1.14 1.35 1.66 1.97 2.24 2.51 2.65 2.55 2.41 2.20 2.05 1.86 1.78 1.79 1.80 1.78 1.64 1.50 1.34 1.36 1.39 1.61 1.82 1.66 2.13 1.83 1.95 2.16 2.31 2.11
0.05 0.05 0.07 0.12 0.20 0.42 0.54 0.91 1.11 0.95 1.07 0.82 0.54 0.44 0.40 0.41 0.52 0.69 0.80 0.90 0.96 1.15 1.56 2.02 2.41 2.68 2.53 2.21 2.03 2.04 1.91 1.85 1.77 1.71 1.92 1.78 1.68 1.49 1.31 1.44 1.62 1.71 1.67 1.86 1.96 2.24 2.11 2.05 2.03
0.03 0.05 0.13 0.24 0.40 0.76 0.73 0.78 1.05 0.82 0.67 0.50 0.38 0.30 0.29 0.31 0.37 0.49 0.57 0.69 0.81 0.95 1.23 1.60 1.95 2.19 2.20 2.04 1.96 2.00 2.03 2.00 1.86 1.68 1.69 1.58 1.56 1.51 1.42 1.50 1.66 1.63 1.62 1.79 1.87 2.03 2.01 2.06 2.13
0.03 0.06 0.24 0.48 0.74 0.94 0.60 0.77 1.10 0.68 0.50 0.39 0.32 0.29 0.26 0.24 0.36 0.49 0.54 0.63 0.69 0.74 0.94 1.24 1.46 1.61 1.82 1.92 1.91 1.88 2.00 2.03 1.83 1.62 1.59 1.58 1.44 1.38 1.40 1.53 1.78 1.72 1.75 1.79 1.96 1.99 1.94 1.99 2.03
0.03 0.05 0.12 0.22 0.35 0.54 0.60 1.21 1.06 0.50 0.36 0.31 0.27 0.26 0.23 0.23 0.33 0.45 0.53 0.58 0.59 0.60 0.77 0.94 1.12 1.35 1.60 1.76 1.83 1.82 1.79 1.67 1.62 1.70 1.61 1.57 1.54 1.48 1.42 1.53 1.59 1.63 1.72 1.76 2.15 1.93 1.82 1.87 1.84
0.04 0.05 0.07 0.09 0.13 0.37 0.71 0.90 0.62 0.34 0.32 0.34 0.30 0.30 0.28 0.31 0.40 0.46 0.59 0.65 0.56 0.58 0.68 0.73 0.90 1.11 1.30 1.55 1.71 1.66 1.66 1.54 1.53 1.60 1.53 1.48 1.59 1.58 1.52 1.47 1.50 1.59 1.74 1.90 2.05 1.94 1.94 1.99 1.78
0.04 0.03 0.05 0.05 0.11 0.27 0.56 0.80 0.84 0.55 0.41 0.37 0.36 0.38 0.36 0.40 0.51 0.59 0.61 0.65 0.60 0.59 0.70 0.75 0.87 0.99 1.07 1.25 1.35 1.27 1.48 1.52 1.64 1.62 1.53 1.46 1.45 1.48 1.55 1.59 1.57 1.66 1.74 1.91 2.04 2.03 2.14 2.18 1.99
0.06 0.04 0.04 0.04 0.07 0.15 0.42 0.61 0.62 0.56 0.50 0.38 0.35 0.42 0.49 0.48 0.60 0.64 0.63 0.65 0.61 0.64 0.69 0.71 0.84 0.94 1.01 1.16 1.23 1.29 1.39 1.47 1.54 1.54 1.54 1.53 1.52 1.55 1.57 1.64 1.68 1.70 1.75 1.92 2.03 1.93 2.14 2.22 2.24
0.08 0.09 0.08 0.07 0.07 0.10 0.21 0.34 0.35 0.39 0.45 0.38 0.38 0.49 0.56 0.42 0.47 0.62 0.69 0.74 0.57 0.60 0.67 0.71 0.78 0.85 0.93 1.13 1.30 1.38 1.50 1.54 1.49 1.47 1.66 1.70 1.68 1.67 1.67 1.73 1.83 1.81 1.84 1.95 1.91 1.78 1.89 2.04 2.21